This is the latest recevied weather packets stored in our database for station/object AD6NH. If no packets are shown the sender has not sent any weather packets the latest 10 day(s).
| Time | Temp. | Humidity | Pressure | Rain* | Wind** | Luminosity | Snow |
|---|---|---|---|---|---|---|---|
| 1777347154 | 15° C | 71% | 1017.5 hPa | 0 mm | - | - | - |
| 1777346554 | 15° C | 70% | 1017.4 hPa | 0 mm | - | - | - |
| 1777345954 | 15.56° C | 69% | 1017.4 hPa | 0 mm | - | - | - |
| 1777345354 | 15.56° C | 68% | 1017.3 hPa | 0 mm | - | - | - |
| 1777344754 | 15.56° C | 67% | 1017.2 hPa | 0 mm | - | - | - |
| 1777344154 | 15.56° C | 65% | 1017 hPa | 0 mm | - | - | - |
| 1777343554 | 16.11° C | 61% | 1016.9 hPa | 0 mm | - | - | - |
| 1777342954 | 16.67° C | 59% | 1016.8 hPa | 0 mm | - | - | - |
| 1777342354 | 16.67° C | 57% | 1016.6 hPa | 0 mm | - | - | - |
| 1777341754 | 17.78° C | 53% | 1016.6 hPa | 0 mm | - | - | - |
| 1777341154 | 17.78° C | 51% | 1016.6 hPa | 0 mm | - | - | - |
| 1777340554 | 17.78° C | 50% | 1016.6 hPa | 0 mm | - | - | - |
| 1777339954 | 18.33° C | 47% | 1016.6 hPa | 0 mm | - | - | - |
| 1777339354 | 18.33° C | 47% | 1016.6 hPa | 0 mm | - | - | - |
| 1777338754 | 18.89° C | 47% | 1016.6 hPa | 0 mm | - | - | - |
| 1777338154 | 18.89° C | 45% | 1016.5 hPa | 0 mm | - | - | - |
| 1777337554 | 19.44° C | 46% | 1016.5 hPa | 0 mm | - | - | - |
| 1777336954 | 19.44° C | 45% | 1016.4 hPa | 0 mm | - | - | - |
| 1777336354 | 20° C | 46% | 1016.3 hPa | 0 mm | - | - | - |
| 1777335754 | 19.44° C | 44% | 1016.3 hPa | 0 mm | - | - | - |
| 1777335154 | 20° C | 43% | 1016.4 hPa | 0 mm | - | - | - |
| 1777334554 | 20° C | 41% | 1016.3 hPa | 0 mm | - | - | - |
| 1777333954 | 20° C | 42% | 1016.2 hPa | 0 mm | - | - | - |
| 1777333354 | 20.56° C | 41% | 1016.2 hPa | 0 mm | - | - | - |
| 1777332754 | 20.56° C | 42% | 1016.2 hPa | 0 mm | - | - | - |
* Rain latest hour (hover to see other rain measurements)
** Current wind speed in m/s (hover to see current wind gust speed)